Tracking 22780 objects as of 11-Apr-2021
HD Live streaming from Space Station
objects crossing your sky now

PALAPA B4

Track PALAPA B4 now!
PALAPA B4 is classified as:


NORAD ID: 21964
Int'l Code: 1992-027A
Perigee: 35,849.7 km
Apogee: 35,919.5 km
Inclination: 11.4 °
Period: 1,440.7 minutes
Semi major axis: 42255 km
RCS: 12.5892 m2 (large)
Launch date: May 14, 1992
Source: Indonesia (INDO)
Launch site: AIR FORCE EASTERN TEST RANGE (AFETR)

Palapa B-4 was an Indonesian communications spacecraft launched by a Delta rocket.
aabbcc
Your satellite tracking list
Your tracking list is empty




NASA's NSSDC Master Catalog

Two Line Element Set (TLE):
1 21964U 92027A   21100.68514711 -.00000343  00000-0  00000-0 0  9990
2 21964  11.3671  29.9623 0008263 359.7859 194.9561  0.99948648 28269
Source of the keplerian elements: AFSPC